COSMOS 2251 DEB, 33971

Orbit data source: Space-Track

COSMOS 2251 DEB, 33971 is space debris in LEO originally from a launch on Wed, 16 Jun 1993 UTC launched from the Plesetsk Missile And Space Complex (PKMTR). The debris from Iridium 33, an American commercial communications satellite, has been tracked extensively since its accidental collision with the defunct Russian satellite Cosmos 2251 in 2009. This event, occurring at high speed in low Earth orbit (LEO), generated thousands of pieces of space debris, significantly increasing the risk of further collisions. The Iridium 33 debris cloud has impacted space traffic management and orbital debris mitigation strategies, making it a subject of ongoing study in space situational awareness.

Loading next visibility...
Identifier
33971, 1993-036FE
Orbit
LEO
Country
Flag of CISCIS
Related business
Manufacturer
Unknown
Mission
Spacecraft
Bus & Motor
Unknown
Mass
Unknown
Launch date (UTC)
1993-06-16 (33 years ago)
Launch vehicle
Unknown
Launch site
Plesetsk Missile And Space Complex (PKMTR)
Object type
Payload
Rocket body
Debris
Shape & HBR
Unknown shape, 0.2 m
Radar Cross Section
Small (<0.1 m²)

Expand to show TLE details & history
Last TLE update: 12 hours ago

TLE from 12 hours ago
0 COSMOS 2251 DEB
1 33971U 93036FE  26035.45226588  .00001098  00000-0  35752-3 0  9993
2 33971  74.0254 154.4581 0019663 248.2830 189.1179 14.39846011889128
Epoch: 2026-02-04T10:51Z
TLE epoch observation values (Epoch: 2026-02-04T10:51:15.772Z)
Latitude
69.82513°
Longitude
-92.175°
Altitude
784.578 km
Speed
7.461 km/s
True Right ascension
13h 41m 02s
True Declination
69° 42' 50"
Sunlit
Object was in daylight at epoch
Visualization orbit readout
Latitude
Unknown
Longitude
Unknown
Altitude
Unknown
Speed
Unknown
Apparent Right ascension
Unknown
Apparent Declination
Unknown
Sunlit
N/A
Visualization observer readout
Local Sidereal Time
00:57:34
Azimuth
Unknown
Elevation
Unknown
Doppler factor
Unknown
Orbital elements
Apogee altitude
770.657 km
Perigee altitude
742.599 km
Semi-major axis
7,134.765 km
Eccentricity
0.00197
Inclination
74.0254°
RAAN
154.4581°
Arg. of periapsis
248.283°
True anomaly
189.08228°
Mean anomaly
189.1179°
Eccentric anomaly
189.10008°
Mean motion
3.60142 °/min
Orbital period
99.96 mins
BSTAR
0.00035752
Loading maneuver chart data...
Computing Atmospheric mass density...

Documentation

Showing up to 5 results
|